Hourly Data Report for January 02, 2018

All times are specified in Local Standard Time (LST). Add 1 hour to adjust for Daylight Saving Time where and when it is observed.

BARRIE-ORO
ONTARIO

44°29'00.000" N
79°33'00.000" W
289.00 m
6117700
71314
XBI

Download Data

Hourly Data (January 2018)
Hourly Data Report for January 2, 2018
Temp Definition
°C
Dew Point Temp Definition
°C
Rel Hum Definition
%
Wind Dir Definition
10's deg

Wind Spd Definition
km/h
Visibility Definition
km
Stn Press Definition
kPa
Hmdx Definition


Wind Chill Definition


Weather Definition


TIME
00:00 -20.3 -23.8 73 19 5   99.17   -25 LegendNANA
01:00 -19.5 -22.1 80 19 6   99.12   -24 LegendNANA
02:00 -19.0 -21.3 82 16 3   99.08   -21 LegendNANA
03:00 -21.3 -23.6 81   0   99.06     LegendNANA
04:00 -21.2 -23.2 84 22 2   98.98   -23 LegendNANA
05:00 -19.9 -22.0 84 26 3   98.89   -22 LegendNANA
06:00 -16.7 -18.4 87 27 4   98.80   -20 LegendNANA
07:00 -13.0 -14.5 89 21 6   98.71   -17 LegendNANA
08:00 -9.3 -11.8 82 25 20   98.66   -17 LegendNANA
09:00 -9.5 -12.4 79 25 19   98.66   -17 LegendNANA
10:00 -9.5 -12.3 80 25 20   98.60   -17 LegendNANA
11:00 -9.2 -11.9 80 25 22   98.52   -17 LegendNANA
12:00 -8.4 -11.2 80 25 24   98.40   -17 LegendNANA
13:00 -8.0 -10.8 80 25 23   98.31   -16 LegendNANA
14:00 -7.6 -10.6 79 26 28   98.26   -16 LegendNANA
15:00 -7.2 -10.7 76 26 26   98.24   -15 LegendNANA
16:00 -7.4 -11.3 74 25 22   98.28   -15 LegendNANA
17:00 -7.8 -11.4 75 26 22   98.31   -15 LegendNANA
18:00 -7.9 -11.9 73 25 19   98.33   -15 LegendNANA
19:00 -7.8 -12.1 71 23 16   98.32   -14 LegendNANA
20:00 -9.6 -13.2 75 23 15   98.28   -16 LegendNANA
21:00 -11.6 -14.7 78 21 14   98.25   -18 LegendNANA
22:00 -12.2 -14.9 80 20 13   98.25   -19 LegendNANA
23:00 -12.5 -15.0 81 21 13   98.27   -19 LegendNANA

Notes on Data Quality.

Legend

  • E = Estimated
  • M = Missing
  • NA = Not Available
  • ‡ = Partner data that is not subject to review by the National Climate Archives
Date modified: